Location: Asheville, NC
(35.6000°N, 82.5500°W)
Time: 20:21:55

Vanguard 2 Rocket - Pass Details

Date: 08 March 2018
Orbit: 554 x 3327 km, 32.9° (Epoch: 19 March)

Event Time Altitude Azimuth Distance (km) Brightness Sun altitude
Rises 22:33:11 0° 276° (W) 3,778 10.6 -47.2°
Reaches altitude 10° 22:35:22 10° 272° (W) 3,071 10.0 -47.6°
Enters shadow 22:37:13 21° 267° (W) 2,543 9.4 -47.9°
Maximum altitude 22:43:06 62° 193° (SSW) 1,858 - -48.8°
Drops below altitude 10° 22:57:01 10° 118° (ESE) 5,302 - -50.8°
Sets 23:02:05 0° 116° (ESE) 6,683 - -51.5°
